Powrót do katalogu

GYEONGGISAT-1

AktywnyNaukaSSO
NORAD 66771·PAYLOAD·🇰🇷 South Korea

Wystrzelony Nov 28, 2025 z Vandenberg Space Force Base

Loading…

Następne Przeloty (najbliższe 24 godziny)

TLE

ŚwieżeSource: Space-Track

Epoka: Sep 14, 2026, 11:25 UTC

1 66771U 25276DK  26257.47606996  .00004536  00000-0  20428-3 0  9995
2 66771  97.4158 330.0913 0000333  16.7054 343.4193 15.21566396 44014

Śledź GYEONGGISAT-1 w czasie rzeczywistym z AllMySat

Download on the App Store